Tracking 28790 objects as of 18-Apr-2024
HD Live streaming from Space Station
objects crossing your sky now

IRIDIUM 39

Track IRIDIUM 39 now!
10-day predictions
IRIDIUM 39 is classified as:


NORAD ID: 25042
Int'l Code: 1997-069D
Perigee: 728.3 km
Apogee: 751.4 km
Inclination: 86.4 °
Period: 99.5 minutes
Semi major axis: 7110 km
RCS: 4.3221 m2 (large)
Launch date: November 9, 1997
Source: United States (US)
Launch site: AIR FORCE WESTERN TEST RANGE (AFWTR)
Your satellite tracking list
Your tracking list is empty




NASA's NSSDC Master Catalog

Two Line Element Set (TLE):
1 25042U 97069D   24108.88473026  .00001890  00000-0  50481-3 0  9996
2 25042  86.3960  33.3459 0016186 288.7873  71.1574 14.47841882387391
Source of the keplerian elements: AFSPC